DW8790 Maspalomas ES current weather conditions

sailwx.info

Wind from 219 at 0 knots gusting 2

Air temperature 17.2° C
Dewpoint 15.7° C

Last reported at 2015-Apr-01 23:45 UTC.
Time now 2015-Apr-02 00:15 UTC

Location: N 27°46' W 015°34'.
View on Google Maps.

See reports from other nearby stations

  
Tides and Currents Weather Stations Pressure Air Temp Water Temp Dewpoint Dewpoint Depression Visibility Wind Speed Wind Dir Waves Ship Positions
date/time (UTC)wind fromknots sea level pressurealtimeterstation pressurevisibilityair tempwater tempwave heightnotes
2015-Apr-01 23:45 219 0 gusting 2 17.2
2015-Apr-01 23:40 219 0 gusting 2 17.2
2015-Apr-01 23:35 219 1 gusting 2 17.2
2015-Apr-01 23:30 219 0 gusting 2 17.2
2015-Apr-01 23:25 219 1 gusting 2 17.2
2015-Apr-01 23:20 219 0 gusting 1 17.2
2015-Apr-01 23:15 219 17.2
2015-Apr-01 23:10 219 1 gusting 2 17.2
2015-Apr-01 23:05 219 2 gusting 4 17.2
2015-Apr-01 23:00 219 0 gusting 2 17.2
2015-Apr-01 22:55 219 17.2
2015-Apr-01 22:50 219 17.2
2015-Apr-01 22:45 219 2 gusting 2 17.2
2015-Apr-01 22:40 219 1 gusting 2 17.2
2015-Apr-01 22:35 226 2 gusting 4 17.2
2015-Apr-01 22:30 215 2 gusting 4 17.2
2015-Apr-01 22:25 215 1 gusting 2 17.2
2015-Apr-01 22:20 215 1 gusting 2 17.2
2015-Apr-01 22:15 215 1 gusting 2 17.8
2015-Apr-01 22:10 215 0 gusting 2 17.8
2015-Apr-01 22:05 215 0 gusting 2 17.8
2015-Apr-01 22:00 215 0 gusting 2 17.8
2015-Apr-01 21:55 215 0 gusting 2 17.8
2015-Apr-01 21:50 215 0 gusting 4 17.8
2015-Apr-01 21:45 242 1 gusting 2 17.8
2015-Apr-01 21:40 242 1 gusting 2 17.8
2015-Apr-01 21:35 242 1 gusting 4 17.8
2015-Apr-01 21:30 242 2 gusting 4 17.8
2015-Apr-01 21:20 235 2 gusting 5 17.8
2015-Apr-01 21:15 238 1 gusting 2 17.8
2015-Apr-01 21:10 238 1 gusting 2 17.8
2015-Apr-01 21:05 238 2 gusting 4 17.8
2015-Apr-01 21:00 258 2 gusting 5 17.8
2015-Apr-01 20:55 244 4 gusting 6 17.8
2015-Apr-01 20:50 248 2 gusting 4 17.8
2015-Apr-01 20:45 248 2 gusting 5 17.8
2015-Apr-01 20:40 241 1 gusting 2 17.8
2015-Apr-01 20:35 241 2 gusting 2 17.8
2015-Apr-01 20:30 241 2 gusting 4 17.8
2015-Apr-01 20:25 241 1 gusting 2 17.8
2015-Apr-01 20:20 241 0 gusting 2 17.8
2015-Apr-01 20:15 241 0 gusting 2 18.3
2015-Apr-01 20:10 241 1 gusting 2 18.3
2015-Apr-01 20:05 241 0 gusting 2 18.3
2015-Apr-01 20:00 241 18.3
2015-Apr-01 19:55 241 18.3
2015-Apr-01 19:50 241 18.3
2015-Apr-01 19:45 241 18.3
2015-Apr-01 19:40 241 18.3
2015-Apr-01 19:35 241 1 gusting 2 18.3
2015-Apr-01 19:30 241 0 gusting 1 18.3
2015-Apr-01 19:25 241 0 gusting 2 18.9
2015-Apr-01 19:20 241 18.9
2015-Apr-01 19:15 241 1 gusting 2 18.9
2015-Apr-01 19:10 241 3 gusting 4 18.9
2015-Apr-01 19:05 237 2 gusting 5 19.4
2015-Apr-01 19:00 257 2 gusting 5 19.4
2015-Apr-01 18:55 221 2 gusting 4 20.0
2015-Apr-01 18:50 230 2 gusting 6 20.0
2015-Apr-01 18:45 244 3 gusting 5 20.0
2015-Apr-01 18:40 230 2 gusting 4 20.6
2015-Apr-01 18:35 205 2 gusting 4 20.6
2015-Apr-01 18:30 216 1 gusting 6 20.6
2015-Apr-01 18:25 232 2 gusting 5 21.1
2015-Apr-01 18:20 241 4 gusting 6 21.1
2015-Apr-01 18:15 211 2 gusting 6 21.1
2015-Apr-01 18:10 215 2 gusting 4 21.1
2015-Apr-01 18:05 212 1 gusting 2 21.1
2015-Apr-01 18:00 219 1 gusting 5 21.1
2015-Apr-01 17:55 222 3 gusting 5 21.1
2015-Apr-01 17:50 227 2 gusting 5 21.1
2015-Apr-01 17:45 262 3 gusting 6 21.1
2015-Apr-01 17:40 236 4 gusting 6 20.6
2015-Apr-01 17:35 275 4 gusting 6 20.6
2015-Apr-01 17:30 240 5 gusting 8 20.6
2015-Apr-01 17:25 233 5 gusting 7 20.6
2015-Apr-01 17:20 257 4 gusting 7 20.6
2015-Apr-01 17:15 243 6 gusting 8 21.1
2015-Apr-01 17:10 255 6 gusting 10 21.1
2015-Apr-01 17:05 220 6 gusting 10 21.1
2015-Apr-01 17:00 268 5 gusting 8 21.1
2015-Apr-01 16:55 267 5 gusting 8 21.1
2015-Apr-01 16:50 253 6 gusting 7 21.7
2015-Apr-01 16:45 258 6 gusting 8 21.1
2015-Apr-01 16:40 238 6 gusting 10 21.7
2015-Apr-01 16:35 259 7 gusting 12 21.7
2015-Apr-01 16:30 254 6 gusting 8 21.7
2015-Apr-01 16:25 252 4 gusting 8 22.2
2015-Apr-01 16:20 252 5 gusting 7 22.2
2015-Apr-01 16:15 207 1 gusting 5 22.2
2015-Apr-01 16:10 167 1 gusting 7 21.7
2015-Apr-01 16:05 168 4 gusting 7 21.7
2015-Apr-01 16:00 164 2 gusting 6 21.7
2015-Apr-01 15:55 168 4 gusting 6 21.7
2015-Apr-01 15:50 142 4 gusting 6 22.2
2015-Apr-01 15:45 119 6 gusting 10 22.2
2015-Apr-01 15:40 130 6 gusting 10 22.8
2015-Apr-01 15:35 112 6 gusting 10 23.3
2015-Apr-01 15:30 120 6 gusting 10 23.3
2015-Apr-01 15:25 188 1 gusting 6 22.8
2015-Apr-01 15:20 245 0 gusting 2 22.8
2015-Apr-01 15:15 250 0 gusting 4 22.2
2015-Apr-01 15:10 134 2 gusting 6 21.7
2015-Apr-01 15:05 201 4 gusting 6 21.7
2015-Apr-01 15:00 245 2 gusting 7 21.1
2015-Apr-01 14:55 235 3 gusting 6 21.1
2015-Apr-01 14:50 243 4 gusting 6 20.6
2015-Apr-01 14:45 241 4 gusting 6 20.6
2015-Apr-01 14:40 274 4 gusting 6 20.6
2015-Apr-01 14:35 243 4 gusting 6 20.6
2015-Apr-01 14:30 259 5 gusting 7 20.6
2015-Apr-01 14:25 246 6 gusting 8 20.6
2015-Apr-01 14:20 218 4 gusting 6 20.6
2015-Apr-01 14:15 228 5 gusting 10 21.1
2015-Apr-01 14:10 249 5 gusting 7 21.1
2015-Apr-01 14:05 251 6 gusting 10 21.7
2015-Apr-01 14:00 252 4 gusting 6 21.7
2015-Apr-01 13:55 252 4 gusting 7 21.7
2015-Apr-01 13:50 192 5 gusting 7 21.7
2015-Apr-01 13:45 187 5 gusting 8 21.7
2015-Apr-01 13:40 207 3 gusting 8 21.7
2015-Apr-01 13:35 188 4 gusting 6 21.7
2015-Apr-01 13:30 215 4 gusting 8 21.7
2015-Apr-01 13:25 216 5 gusting 10 21.1
2015-Apr-01 13:20 224 4 gusting 10 21.1
2015-Apr-01 13:15 247 6 gusting 10 21.1
2015-Apr-01 13:10 218 6 gusting 10 21.1
2015-Apr-01 13:05 240 4 gusting 10 21.1
2015-Apr-01 13:00 224 7 gusting 10 21.1
2015-Apr-01 12:55 258 6 gusting 10 21.1
2015-Apr-01 12:50 260 6 gusting 7 21.1
2015-Apr-01 12:45 243 4 gusting 6 21.1
2015-Apr-01 12:40 240 5 gusting 8 21.7
2015-Apr-01 12:35 219 3 gusting 5 21.7
2015-Apr-01 12:30 223 2 gusting 4 21.1
2015-Apr-01 12:25 215 2 gusting 5 21.1
2015-Apr-01 12:20 194 3 gusting 5 21.1
2015-Apr-01 12:15 287 0 gusting 5 21.1
2015-Apr-01 12:10 218 2 gusting 5 21.1
2015-Apr-01 12:05 223 2 gusting 5 21.1
2015-Apr-01 12:00 185 1 gusting 5 20.6
2015-Apr-01 11:55 205 4 gusting 8 20.0
2015-Apr-01 11:50 291 4 gusting 7 20.0
2015-Apr-01 11:45 270 4 gusting 6 20.0
2015-Apr-01 11:40 220 3 gusting 6 20.0
2015-Apr-01 11:35 251 5 gusting 7 20.0
2015-Apr-01 11:30 233 4 gusting 8 20.0
2015-Apr-01 11:25 236 5 gusting 8 20.0
2015-Apr-01 11:20 239 5 gusting 7 20.0
2015-Apr-01 11:15 243 5 gusting 10 20.0
2015-Apr-01 11:10 240 5 gusting 10 20.0
2015-Apr-01 11:05 232 5 gusting 10 20.0
2015-Apr-01 11:00 278 5 gusting 7 20.0
2015-Apr-01 10:55 207 4 gusting 6 20.0
2015-Apr-01 10:50 243 5 gusting 6 20.6
2015-Apr-01 10:45 201 4 gusting 6 20.6
2015-Apr-01 10:40 214 4 gusting 7 20.6
2015-Apr-01 10:35 175 4 gusting 6 20.6
2015-Apr-01 10:30 240 2 gusting 4 20.6
2015-Apr-01 10:25 222 3 gusting 6 20.6
2015-Apr-01 10:20 197 2 gusting 7 20.6
2015-Apr-01 10:15 176 2 gusting 6 20.0
2015-Apr-01 10:10 225 2 gusting 6 20.0
2015-Apr-01 10:05 262 4 gusting 6 20.0
2015-Apr-01 10:00 203 1 gusting 4 20.6
2015-Apr-01 09:55 241 0 gusting 2 20.0
2015-Apr-01 09:50 139 20.0
2015-Apr-01 09:45 138 0 gusting 2 20.0
2015-Apr-01 09:40 115 1 gusting 2 19.4
2015-Apr-01 09:35 131 1 gusting 2 19.4
2015-Apr-01 09:30 125 0 gusting 1 19.4
2015-Apr-01 09:20 125 0 gusting 4 18.9
2015-Apr-01 09:15 114 2 gusting 6 18.9
2015-Apr-01 09:10 129 4 gusting 7 18.9
2015-Apr-01 09:05 128 4 gusting 7 18.9
2015-Apr-01 09:00 144 5 gusting 6 18.9
2015-Apr-01 08:55 138 5 gusting 7 18.3
2015-Apr-01 08:50 111 4 gusting 6 17.8
2015-Apr-01 08:45 115 5 gusting 6 17.8
2015-Apr-01 08:40 121 5 gusting 6 17.8
2015-Apr-01 08:35 132 5 gusting 7 17.8
2015-Apr-01 08:30 139 2 gusting 6 17.8
2015-Apr-01 08:25 123 2 gusting 4 17.2
2015-Apr-01 08:20 126 4 gusting 5 17.2
2015-Apr-01 08:15 151 17.2
2015-Apr-01 08:10 265 17.2
2015-Apr-01 08:05 329 0 gusting 2 17.2
2015-Apr-01 08:00 301 16.7
2015-Apr-01 07:55 279 2 gusting 6 16.7
2015-Apr-01 07:50 232 0 gusting 2 16.7
2015-Apr-01 07:45 055 2 gusting 4 16.1
2015-Apr-01 07:40 092 4 gusting 6 16.1
2015-Apr-01 07:35 124 4 gusting 6 16.1
2015-Apr-01 07:30 111 3 gusting 6 16.1
2015-Apr-01 07:25 111 16.1
2015-Apr-01 07:20 111 16.1
2015-Apr-01 07:15 111 2 gusting 5 16.1
2015-Apr-01 07:10 100 2 gusting 5 16.1
2015-Apr-01 07:05 250 16.1
2015-Apr-01 07:00 250 16.1
2015-Apr-01 06:55 250 0 gusting 2 16.1
2015-Apr-01 06:50 250 0 gusting 2 16.1
2015-Apr-01 06:45 250 2 gusting 4 16.1
2015-Apr-01 06:40 250 1 gusting 2 16.1
2015-Apr-01 06:35 250 16.1
2015-Apr-01 06:30 250 1 gusting 2 16.1
2015-Apr-01 06:25 250 16.1
2015-Apr-01 06:20 250 0 gusting 2 16.1
2015-Apr-01 06:15 250 16.1
2015-Apr-01 06:10 250 0 gusting 2 16.1
2015-Apr-01 06:05 250 16.1
2015-Apr-01 06:00 250 16.1
2015-Apr-01 05:55 250 0 gusting 2 16.1
2015-Apr-01 05:50 250 16.1
2015-Apr-01 05:45 250 16.1
2015-Apr-01 05:40 250 15.6
2015-Apr-01 05:35 250 0 gusting 2 15.6
2015-Apr-01 05:30 250 15.6
2015-Apr-01 05:25 250 15.6
2015-Apr-01 05:20 250 15.6
2015-Apr-01 05:15 250 15.6
2015-Apr-01 05:10 250 15.6
2015-Apr-01 05:05 250 15.6
2015-Apr-01 05:00 250 15.6
2015-Apr-01 04:55 250 15.6
2015-Apr-01 04:50 250 0 gusting 2 15.6
2015-Apr-01 04:45 250 0 gusting 2 15.6
2015-Apr-01 04:40 250 15.6
2015-Apr-01 04:35 250 15.6
2015-Apr-01 04:30 250 15.6
2015-Apr-01 04:25 250 15.6
2015-Apr-01 04:20 250 15.6
2015-Apr-01 04:15 250 15.6
2015-Apr-01 04:10 250 2 gusting 5 15.6
2015-Apr-01 04:05 239 3 gusting 5 16.1
2015-Apr-01 04:00 256 3 gusting 5 16.1
2015-Apr-01 03:55 306 0 gusting 2 16.1
2015-Apr-01 03:50 306 0 gusting 2 16.1
2015-Apr-01 03:45 306 16.1
2015-Apr-01 03:40 306 16.1
2015-Apr-01 03:35 306 1 gusting 2 16.1
2015-Apr-01 03:30 306 0 gusting 2 16.1
2015-Apr-01 03:25 306 0 gusting 1 16.1
2015-Apr-01 03:20 306 0 gusting 1 16.1
2015-Apr-01 03:15 306 1 gusting 2 16.1
2015-Apr-01 03:10 306 16.1
2015-Apr-01 03:05 306 16.1
2015-Apr-01 03:00 306 0 gusting 2 16.1
2015-Apr-01 02:55 312 1 gusting 4 16.1
2015-Apr-01 02:50 312 1 gusting 2 16.1
2015-Apr-01 02:45 312 16.1
2015-Apr-01 02:40 312 16.1
2015-Apr-01 02:35 312 16.1
2015-Apr-01 02:30 312 0 gusting 2 16.1
2015-Apr-01 02:25 312 16.1
2015-Apr-01 02:20 312 16.1
2015-Apr-01 02:15 312 16.1
2015-Apr-01 02:10 312 16.1
2015-Apr-01 02:05 312 16.1
2015-Apr-01 02:00 312 16.1
2015-Apr-01 01:55 312 1 gusting 2 16.7
2015-Apr-01 01:50 312 1 gusting 2 16.7
2015-Apr-01 01:45 312 1 gusting 2 16.7
2015-Apr-01 01:40 098 16.7
2015-Apr-01 01:35 098 16.7
2015-Apr-01 01:30 098 16.7
2015-Apr-01 01:25 098 16.7
2015-Apr-01 01:20 098 16.1
2015-Apr-01 01:15 098 16.1
2015-Apr-01 01:10 098 16.1
2015-Apr-01 01:05 098 0 gusting 2 16.1
2015-Apr-01 01:00 098 1 gusting 4 16.1
2015-Apr-01 00:55 098 2 gusting 4 16.1
2015-Apr-01 00:50 098 1 gusting 4 16.1
2015-Apr-01 00:45 265 2 gusting 2 16.1
2015-Apr-01 00:40 265 2 gusting 2 16.1
2015-Apr-01 00:35 265 1 gusting 2 16.1
2015-Apr-01 00:30 265 16.1
2015-Apr-01 00:25 265 16.1
2015-Apr-01 00:20 265 16.1
2015-Apr-01 00:15 265 16.1
2015-Apr-01 00:10 265 16.7
2015-Apr-01 00:05 265 16.7
2015-Apr-01 00:00 265 16.7
2015-Mar-31 23:55 265 16.7
2015-Mar-31 23:50 265 16.7
2015-Mar-31 23:45 265 16.7
2015-Mar-31 23:40 265 16.7
2015-Mar-31 23:35 265 16.7
2015-Mar-31 23:30 265 0 gusting 2 16.7
2015-Mar-31 23:25 265 0 gusting 2 16.7
2015-Mar-31 23:20 265 16.7
2015-Mar-31 23:15 265 17.2
2015-Mar-31 23:10 265 17.2
2015-Mar-31 23:05 265 0 gusting 2 17.2
2015-Mar-31 23:00 265 17.2
2015-Mar-31 22:55 265 17.2
2015-Mar-31 22:50 265 17.2
2015-Mar-31 22:45 265 17.2
2015-Mar-31 22:40 265 17.2
2015-Mar-31 22:35 265 17.2
2015-Mar-31 22:30 265 17.2
2015-Mar-31 22:25 265 17.2
2015-Mar-31 22:20 265 1 gusting 2 17.2
2015-Mar-31 22:15 265 1 gusting 2 17.2
2015-Mar-31 22:10 265 17.2
2015-Mar-31 22:05 265 2 gusting 4 17.8
2015-Mar-31 22:00 266 2 gusting 4 17.8
2015-Mar-31 21:55 254 2 gusting 4 17.8
2015-Mar-31 21:50 254 1 gusting 4 17.8
2015-Mar-31 21:45 254 3 gusting 5 17.8
2015-Mar-31 21:40 254 2 gusting 5 17.8
2015-Mar-31 21:35 254 3 gusting 5 17.8
2015-Mar-31 21:20 250 2 gusting 2 17.8
2015-Mar-31 21:15 250 0 gusting 2 17.8
2015-Mar-31 21:10 250 0 gusting 2 17.8
2015-Mar-31 21:05 250 0 gusting 2 17.8
2015-Mar-31 21:00 250 0 gusting 2 17.8
2015-Mar-31 20:55 250 1 gusting 2 17.8
2015-Mar-31 20:50 250 1 gusting 4 17.8
2015-Mar-31 20:45 250 1 gusting 2 17.8
2015-Mar-31 20:40 250 1 gusting 2 17.8
2015-Mar-31 20:35 250 2 gusting 2 17.8
2015-Mar-31 20:30 250 17.8
2015-Mar-31 20:25 250 0 gusting 2 17.8
2015-Mar-31 20:20 250 0 gusting 2 17.8
2015-Mar-31 20:15 250 18.3
2015-Mar-31 20:10 250 1 gusting 4 18.3
2015-Mar-31 20:05 270 2 gusting 6 18.3
2015-Mar-31 20:00 256 3 gusting 5 18.3
2015-Mar-31 19:55 261 2 gusting 6 18.3
2015-Mar-31 19:50 246 4 gusting 6 18.3
2015-Mar-31 19:45 246 3 gusting 6 18.3
2015-Mar-31 19:40 238 4 gusting 6 18.9
2015-Mar-31 19:35 249 4 gusting 7 18.9
2015-Mar-31 19:30 260 5 gusting 7 18.9
2015-Mar-31 19:25 238 4 gusting 8 19.4
2015-Mar-31 19:20 248 4 gusting 6 19.4
2015-Mar-31 19:15 220 4 gusting 6 19.4
2015-Mar-31 19:10 208 2 gusting 6 20.0
2015-Mar-31 19:05 214 3 gusting 6 20.0
2015-Mar-31 19:00 193 1 gusting 4 20.0
2015-Mar-31 18:55 169 3 gusting 6 20.0
2015-Mar-31 18:50 149 2 gusting 5 20.6
2015-Mar-31 18:45 168 3 gusting 6 20.6
2015-Mar-31 18:40 145 2 gusting 4 20.6
2015-Mar-31 18:35 141 2 gusting 4 21.1
2015-Mar-31 18:30 162 0 gusting 4 21.1
2015-Mar-31 18:25 173 3 gusting 6 21.7
2015-Mar-31 18:20 168 1 gusting 5 22.2
2015-Mar-31 18:15 213 2 gusting 4 22.2
2015-Mar-31 18:10 234 1 gusting 5 22.2
2015-Mar-31 18:05 207 2 gusting 5 22.2
2015-Mar-31 18:00 246 2 gusting 6 22.2
2015-Mar-31 17:55 217 2 gusting 6 22.2
2015-Mar-31 17:50 248 5 gusting 7 22.2
2015-Mar-31 17:45 250 2 gusting 7 22.2
2015-Mar-31 17:40 257 5 gusting 8 22.2
2015-Mar-31 17:35 247 5 gusting 8 22.2
2015-Mar-31 17:30 266 5 gusting 8 22.2
2015-Mar-31 17:25 225 6 gusting 10 22.8
2015-Mar-31 17:20 240 7 gusting 10 22.8
2015-Mar-31 17:15 233 5 gusting 7 23.3
2015-Mar-31 17:10 243 6 gusting 8 23.3
2015-Mar-31 17:05 223 4 gusting 8 23.3
2015-Mar-31 17:00 244 4 gusting 6 23.3
2015-Mar-31 16:55 238 4 gusting 6 23.3
2015-Mar-31 16:50 229 3 gusting 6 23.3
2015-Mar-31 16:45 245 3 gusting 6 23.3
2015-Mar-31 16:40 241 4 gusting 8 23.3
2015-Mar-31 16:35 241 4 gusting 8 23.3
2015-Mar-31 16:30 234 5 gusting 10 23.3
2015-Mar-31 16:25 230 4 gusting 7 23.3
2015-Mar-31 16:20 235 5 gusting 10 23.3
2015-Mar-31 16:15 272 4 gusting 8 22.8
2015-Mar-31 16:10 247 5 gusting 7 22.8
2015-Mar-31 16:05 239 4 gusting 6 22.8
2015-Mar-31 16:00 263 6 gusting 8 22.8
2015-Mar-31 15:55 249 5 gusting 10 22.8
2015-Mar-31 15:50 250 6 gusting 8 22.8
2015-Mar-31 15:45 266 5 gusting 10 22.8
2015-Mar-31 15:40 282 6 gusting 10 22.8
2015-Mar-31 15:35 249 6 gusting 8 22.8
2015-Mar-31 15:30 224 5 gusting 8 22.8
2015-Mar-31 15:25 204 5 gusting 8 22.8
2015-Mar-31 15:20 226 5 gusting 7 22.8
2015-Mar-31 15:15 240 4 gusting 6 22.8
2015-Mar-31 15:10 224 6 gusting 8 22.8
2015-Mar-31 15:05 250 5 gusting 7 22.8
2015-Mar-31 15:00 217 5 gusting 6 22.8
2015-Mar-31 14:55 246 5 gusting 7 22.8
2015-Mar-31 14:50 207 4 gusting 7 22.2
2015-Mar-31 14:45 258 4 gusting 7 22.2
2015-Mar-31 14:40 227 6 gusting 10 22.2
2015-Mar-31 14:35 231 6 gusting 10 22.2
2015-Mar-31 14:30 229 6 gusting 10 22.2
2015-Mar-31 14:25 228 6 gusting 11 22.2
2015-Mar-31 14:20 236 6 gusting 12 22.2
2015-Mar-31 14:15 248 7 gusting 11 22.2
2015-Mar-31 14:10 244 7 gusting 12 22.2
2015-Mar-31 14:05 249 8 gusting 13 22.2
2015-Mar-31 14:00 235 8 gusting 13 22.8
2015-Mar-31 13:55 246 8 gusting 11 22.8
2015-Mar-31 13:50 226 5 gusting 10 22.8
2015-Mar-31 13:45 229 6 gusting 10 22.8
2015-Mar-31 13:40 257 6 gusting 10 22.8
2015-Mar-31 13:35 242 6 gusting 10 22.8
2015-Mar-31 13:30 250 6 gusting 11 23.3
2015-Mar-31 13:25 239 6 gusting 10 23.3
2015-Mar-31 13:20 222 4 gusting 8 23.3
2015-Mar-31 13:15 235 6 gusting 11 22.8
2015-Mar-31 13:10 247 6 gusting 10 23.3
2015-Mar-31 13:05 253 6 gusting 10 23.3
2015-Mar-31 13:00 232 6 gusting 10 23.3
2015-Mar-31 12:55 236 5 gusting 11 23.3
2015-Mar-31 12:50 232 6 gusting 10 23.3
2015-Mar-31 12:45 243 6 gusting 8 23.3
2015-Mar-31 12:40 207 4 gusting 8 23.3
2015-Mar-31 12:35 239 6 gusting 10 23.3
2015-Mar-31 12:30 262 5 gusting 10 23.3
2015-Mar-31 12:25 234 4 gusting 6 23.3
2015-Mar-31 12:20 249 4 gusting 10 23.3
2015-Mar-31 12:15 235 5 gusting 7 23.3
2015-Mar-31 12:10 266 5 gusting 8 22.8
2015-Mar-31 12:05 228 5 gusting 10 23.3
2015-Mar-31 12:00 255 6 gusting 8 23.3
2015-Mar-31 11:55 246 6 gusting 8 23.3
2015-Mar-31 11:50 250 5 gusting 10 23.3
2015-Mar-31 11:45 245 6 gusting 8 23.3
2015-Mar-31 11:40 251 5 gusting 10 23.3
2015-Mar-31 11:35 264 7 gusting 13 23.9
2015-Mar-31 11:30 262 5 gusting 10 23.9
2015-Mar-31 11:25 245 2 gusting 10 23.9
2015-Mar-31 11:20 254 7 gusting 12 24.4
2015-Mar-31 11:15 262 2 gusting 8 24.4
2015-Mar-31 11:10 148 5 gusting 8 24.4
2015-Mar-31 11:05 133 5 gusting 10 24.4
2015-Mar-31 11:00 133 6 gusting 10 23.9
2015-Mar-31 10:55 137 8 gusting 12 23.9
2015-Mar-31 10:50 133 5 gusting 10 23.9
2015-Mar-31 10:45 126 6 gusting 10 23.9
2015-Mar-31 10:40 161 4 gusting 10 23.9
2015-Mar-31 10:35 101 5 gusting 13 23.3
2015-Mar-31 10:30 137 6 gusting 13 23.9
2015-Mar-31 10:25 110 6 gusting 10 23.3
2015-Mar-31 10:20 132 4 gusting 10 22.8
2015-Mar-31 10:15 136 7 gusting 10 22.8
2015-Mar-31 10:10 127 5 gusting 10 22.8
2015-Mar-31 10:05 109 5 gusting 12 22.8
2015-Mar-31 10:00 131 2 gusting 10 22.2
2015-Mar-31 09:55 113 1 gusting 5 21.7
2015-Mar-31 09:50 253 2 gusting 5 21.7
2015-Mar-31 09:45 254 1 gusting 6 21.1
2015-Mar-31 09:40 169 2 gusting 6 21.1
2015-Mar-31 09:35 225 1 gusting 2 21.1
2015-Mar-31 09:30 113 1 gusting 2 21.1
2015-Mar-31 09:20 104 0 gusting 2 20.0
2015-Mar-31 09:15 298 1 gusting 2 20.0
2015-Mar-31 09:10 234 0 gusting 2 20.0
2015-Mar-31 09:05 229 2 gusting 4 19.4
2015-Mar-31 09:00 279 1 gusting 5 19.4
2015-Mar-31 08:55 238 2 gusting 4 19.4
2015-Mar-31 08:50 251 1 gusting 4 19.4
2015-Mar-31 08:45 259 1 gusting 2 19.4
2015-Mar-31 08:40 259 19.4
2015-Mar-31 08:35 259 0 gusting 2 18.9
2015-Mar-31 08:30 259 1 gusting 2 18.9
2015-Mar-31 08:25 320 18.9
2015-Mar-31 08:20 320 18.3
2015-Mar-31 08:15 320 17.8
2015-Mar-31 08:10 320 17.2
2015-Mar-31 08:05 320 17.2
2015-Mar-31 08:00 320 16.7
2015-Mar-31 07:55 320 16.7
2015-Mar-31 07:50 320 16.1
2015-Mar-31 07:45 320 16.1
2015-Mar-31 07:40 320 16.1
2015-Mar-31 07:35 320 16.1
2015-Mar-31 07:30 320 16.1
2015-Mar-31 07:25 320 15.6
2015-Mar-31 07:20 320 15.6
2015-Mar-31 07:15 320 15.6
2015-Mar-31 07:10 320 15.6
2015-Mar-31 07:05 320 15.6
2015-Mar-31 07:00 320 15.6
2015-Mar-31 06:55 320 15.6
2015-Mar-31 06:50 320 1 gusting 2 16.1
2015-Mar-31 06:45 320 1 gusting 2 15.6
2015-Mar-31 06:40 320 0 gusting 2 15.6
2015-Mar-31 06:35 320 1 gusting 2 15.0
2015-Mar-31 06:30 320 15.6
2015-Mar-31 06:25 320 15.6
2015-Mar-31 06:20 320 15.0
2015-Mar-31 06:15 320 1 gusting 2 15.0
2015-Mar-31 06:10 320 15.6
2015-Mar-31 06:05 320 15.6
2015-Mar-31 06:00 320 15.0
2015-Mar-31 05:55 320 15.0
2015-Mar-31 05:50 320 15.0
2015-Mar-31 05:45 320 15.0
2015-Mar-31 05:40 320 15.0
2015-Mar-31 05:35 320 15.0
2015-Mar-31 05:30 320 15.0
2015-Mar-31 05:25 320 15.0
2015-Mar-31 05:20 320 15.0
2015-Mar-31 05:15 320 15.0
2015-Mar-31 05:10 320 15.0
2015-Mar-31 05:05 320 15.6
2015-Mar-31 05:00 320 15.6
2015-Mar-31 04:55 320 15.6
2015-Mar-31 04:50 320 15.6
2015-Mar-31 04:45 320 15.6
2015-Mar-31 04:40 320 15.6
2015-Mar-31 04:35 320 15.6
2015-Mar-31 04:30 320 0 gusting 2 15.6
2015-Mar-31 04:25 320 0 gusting 2 15.6
2015-Mar-31 04:20 318 2 gusting 2 15.6
2015-Mar-31 04:15 309 1 gusting 2 16.1
2015-Mar-31 04:10 309 2 gusting 2 16.1
2015-Mar-31 04:05 309 16.1
2015-Mar-31 04:00 309 16.1
2015-Mar-31 03:55 309 16.1
2015-Mar-31 03:50 309 16.1
2015-Mar-31 03:45 309 1 gusting 2 16.7
2015-Mar-31 03:40 309 16.1
2015-Mar-31 03:35 309 0 gusting 2 16.1
2015-Mar-31 03:30 309 1 gusting 2 15.6
2015-Mar-31 03:25 309 2 gusting 2 15.6
2015-Mar-31 03:20 309 1 gusting 2 15.6
2015-Mar-31 03:15 309 1 gusting 2 15.6
2015-Mar-31 03:10 309 1 gusting 2 15.6
2015-Mar-31 03:05 290 2 gusting 4 15.6
2015-Mar-31 03:00 295 2 gusting 4 15.6
2015-Mar-31 02:55 292 2 gusting 2 15.6
2015-Mar-31 02:50 288 3 gusting 4 15.6
2015-Mar-31 02:45 291 2 gusting 2 16.1
2015-Mar-31 02:40 303 2 gusting 2 16.1
2015-Mar-31 02:35 299 2 gusting 2 16.1
2015-Mar-31 02:30 294 2 gusting 2 16.1
2015-Mar-31 02:25 294 2 gusting 2 16.1
2015-Mar-31 02:20 294 0 gusting 2 16.7
2015-Mar-31 02:15 294 16.7
2015-Mar-31 02:10 294 16.7
2015-Mar-31 02:05 294 0 gusting 2 16.7
2015-Mar-31 02:00 294 1 gusting 2 16.7
2015-Mar-31 01:55 289 1 gusting 2 16.7
2015-Mar-31 01:50 313 2 gusting 4 16.7
2015-Mar-31 01:45 286 2 gusting 6 16.7
2015-Mar-31 01:40 287 4 gusting 6 16.7
2015-Mar-31 01:35 297 2 gusting 4 16.7
2015-Mar-31 01:30 302 3 gusting 5 16.7
2015-Mar-31 01:25 318 1 gusting 4 16.7
2015-Mar-31 01:20 301 1 gusting 5 16.7
2015-Mar-31 01:15 289 1 gusting 4 16.7
2015-Mar-31 01:10 309 2 gusting 6 16.7
2015-Mar-31 01:05 288 1 gusting 4 16.7
2015-Mar-31 01:00 302 4 gusting 5 16.7
2015-Mar-31 00:55 276 2 gusting 4 16.7
2015-Mar-31 00:50 302 1 gusting 2 16.7
2015-Mar-31 00:45 302 0 gusting 2 16.7
2015-Mar-31 00:40 302 16.7
2015-Mar-31 00:35 285 1 gusting 2 16.7
2015-Mar-31 00:30 304 16.7
2015-Mar-31 00:25 304 16.7
2015-Mar-31 00:20 304 16.7
2015-Mar-31 00:15 304 0 gusting 1 16.7
2015-Mar-31 00:10 304 1 gusting 2 16.7
2015-Mar-31 00:05 304 1 gusting 2 16.7
2015-Mar-31 00:00 304 1 gusting 2 16.7